Project,Study,Ord_Occ,Event_Num,Cast_ID,Date_Time_UTC,Date_Time_PST,Lat_Dec,Lon_Dec,Sta_ID,Line,Sta,Depth,Pressure,PrQ,Temp1,Temp1Q,Temp2,Temp2Q,TempAve,Salt1,Salt1Q,Salt1_Corr,Salt2,Salt2Q,Salt2_Corr,SaltAve_Corr,Ox1,Ox1Q,Ox1_CruiseCorr,Ox1_StaCorr,Ox2,Ox2Q,Ox2_CruiseCorr,Ox2_StaCorr,OxAve_StaCorr,Ox1uM,Ox1uM_CruiseCorr,Ox1uM_StaCorr,Ox2uM,Ox2uM_CruiseCorr,Ox2uM_StaCorr,OxAveuM_StaCorr,FluorV,FluorQ,EstChl_CruiseCorr,EstChl_StaCorr,ISUSV,ISUSQ,EstNO3_CruiseCorr,EstNO3_StaCorr,SigThetaTS1,SigThetaTS1Q,SigThetaTS2,SigThetaTS2Q,BAT,XMiss,TransQ,pH,pHQ,SPAR,SPARQ,PAR,PARQ,PoT1,PoT2,DynHt,SVA,OxSat1,OxSat2,BTL_Depth,BTL_Temp,SaltB,OxB,OxBuM,Chl-a,Phaeo,NO3,NO2,NH4,PO4,SIL
CalCOFI,2105SH,013,,2105_013d,06-May-2021 19:54:10,06-May-2021 11:54:10,30.51374,-122.25876,093.3 100.0,093.3,100.0,3.000,3.021,,15.3580,,15.3591,,15.3586,33.2825,,33.2837,33.2826,,33.2845,33.2841,5.5971,,5.9195,,5.6578,,5.9197,,,243.973,257.5482,256.1623,246.620,268.6200,256.2753,256.2188,0.0436,,0.1029,0.1076,2.6040,,1.3858,,24.5701,,24.5698,,,,,,,,,,,15.3575,15.3586,0.0021,335.804,97.987,99.052,3,15.374,,,257.35,0.215,0.053,0.14,0.00,0.00,0.32,1.38
CalCOFI,2105SH,013,,2105_013d,06-May-2021 19:54:15,06-May-2021 11:54:15,30.51374,-122.25875,093.3 100.0,093.3,100.0,4.000,4.028,,15.3538,,15.3556,,15.3547,33.2827,,33.2839,33.2826,,33.2845,33.2842,5.6034,,5.9261,,5.6562,,5.9181,,,244.244,257.8315,256.4423,246.546,268.9127,256.1995,256.3209,0.0435,,0.1022,0.1072,2.6042,,1.3858,,24.5711,,24.5706,,,,,,,,,,,15.3532,15.3550,0.0059,335.733,98.088,99.016,,,,,,,,,,,,
CalCOFI,2105SH,013,,2105_013d,06-May-2021 19:54:19,06-May-2021 11:54:19,30.51374,-122.25874,093.3 100.0,093.3,100.0,5.000,5.035,,15.3533,,15.3590,,15.3562,33.2827,,33.2839,33.2828,,33.2847,33.2843,5.5890,,5.9111,,5.6545,,5.9163,,,243.619,257.1781,255.7965,246.472,268.2377,256.1236,255.9601,0.0438,,0.1044,0.1085,2.6040,,1.3858,,24.5712,,24.5701,,,,,,,,,,,15.3526,15.3582,0.0094,335.753,97.836,98.992,,,,,,,,,,,,
CalCOFI,2105SH,013,,2105_013d,06-May-2021 19:54:21,06-May-2021 11:54:21,30.51374,-122.25874,093.3 100.0,093.3,100.0,6.000,6.041,,15.3587,,15.3588,,15.3588,33.2827,,33.2839,33.2830,,33.2849,33.2844,5.5968,,5.9192,,5.6516,,5.9133,,,243.957,257.5314,256.1458,246.349,268.6027,255.9975,256.0717,0.0446,,0.1104,0.1118,2.6037,,1.3858,,24.5701,,24.5703,,,,,,,,,,,15.3578,15.3579,0.0128,335.889,97.982,98.943,,,,,,,,,,,,
CalCOFI,2105SH,013,,2105_013d,06-May-2021 19:54:23,06-May-2021 11:54:23,30.51374,-122.25874,093.3 100.0,093.3,100.0,7.000,7.048,,15.3485,,15.3521,,15.3503,33.2830,,33.2842,33.2827,,33.2846,33.2844,5.5820,,5.9038,,5.6558,,5.9177,,,243.311,256.8561,255.4782,246.528,267.9051,256.1810,255.8296,0.0450,,0.1134,0.1135,2.6034,,1.3858,,24.5726,,24.5716,,,,,,,,,,,15.3475,15.3510,0.0161,335.684,97.703,99.001,,,,,,,,,,,,
CalCOFI,2105SH,013,,2105_013d,06-May-2021 19:54:24,06-May-2021 11:54:24,30.51374,-122.25874,093.3 100.0,093.3,100.0,8.000,8.055,,15.3280,,15.3383,,15.3332,33.2827,,33.2839,33.2818,,33.2837,33.2838,5.5782,,5.8998,,5.6599,,5.9219,,,243.149,256.6868,255.3108,246.708,267.7301,256.3655,255.8382,0.0463,,0.1230,0.1190,2.6030,,1.3858,,24.5769,,24.5739,,,,,,,,,,,15.3267,15.3371,0.0195,335.306,97.598,99.047,,,,,,,,,,,,
CalCOFI,2105SH,013,,2105_013d,06-May-2021 19:54:26,06-May-2021 11:54:26,30.51374,-122.25874,093.3 100.0,093.3,100.0,9.000,9.062,,15.3044,,15.3050,,15.3047,33.2814,,33.2826,33.2807,,33.2826,33.2826,5.6010,,5.9236,,5.6545,,5.9163,,,244.142,257.7248,256.3369,246.471,268.8025,256.1226,256.2298,0.0478,,0.1342,0.1253,2.6027,,1.3858,,24.5811,,24.5805,,,,,,,,,,,15.3030,15.3037,0.0229,334.931,97.951,98.886,,,,,,,,,,,,
CalCOFI,2105SH,013,,2105_013d,06-May-2021 19:54:28,06-May-2021 11:54:28,30.51374,-122.25874,093.3 100.0,093.3,100.0,10.000,10.069,,15.3019,,15.3024,,15.3022,33.2815,,33.2827,33.2811,,33.2830,33.2829,5.6080,,5.9309,,5.6592,,5.9212,,,244.444,258.0406,256.6490,246.677,269.1287,256.3337,256.4914,0.0490,,0.1431,0.1304,2.6025,,1.3858,,24.5818,,24.5814,,,,,,,,,,,15.3004,15.3009,0.0262,334.898,98.067,98.964,10,15.307,,,257.39,0.233,0.056,0.0,0.00,0.00,0.31,0.97
CalCOFI,2105SH,013,,2105_013d,06-May-2021 19:54:29,06-May-2021 11:54:29,30.51373,-122.25873,093.3 100.0,093.3,100.0,11.000,11.076,,15.2996,,15.3002,,15.2999,33.2817,,33.2829,33.2812,,33.2831,33.2830,5.6193,,5.9428,,5.6667,,5.9290,,,244.938,258.5570,257.1595,247.003,269.6622,256.6678,256.9137,0.0510,,0.1579,0.1388,2.6023,,1.3858,,24.5825,,24.5820,,,,,,,,,,,15.2980,15.2985,0.0296,334.864,98.261,99.090,,,,,,,,,,,,
CalCOFI,2105SH,013,,2105_013d,06-May-2021 19:54:32,06-May-2021 11:54:32,30.51373,-122.25872,093.3 100.0,093.3,100.0,12.000,12.083,,15.2967,,15.2977,,15.2972,33.2818,,33.2830,33.2814,,33.2833,33.2832,5.6100,,5.9330,,5.6637,,5.9259,,,244.530,258.1305,256.7379,246.872,269.2216,256.5336,256.6358,0.0529,,0.1720,0.1468,2.6021,,1.3858,,24.5832,,24.5827,,,,,,,,,,,15.2949,15.2959,0.0330,334.827,98.092,99.033,,,,,,,,,,,,
CalCOFI,2105SH,013,,2105_013d,06-May-2021 19:54:34,06-May-2021 11:54:34,30.51372,-122.25872,093.3 100.0,093.3,100.0,13.000,13.090,,15.2936,,15.2944,,15.2940,33.2820,,33.2832,33.2816,,33.2835,33.2834,5.5725,,5.8938,,5.6615,,5.9236,,,242.896,256.4223,255.0493,246.774,267.4569,256.4331,255.7412,0.0533,,0.1749,0.1485,2.6019,,1.3858,,24.5842,,24.5836,,,,,,,,,,,15.2916,15.2924,0.0364,334.768,97.431,98.987,,,,,,,,,,,,
CalCOFI,2105SH,013,,2105_013d,06-May-2021 19:54:35,06-May-2021 11:54:35,30.51372,-122.25872,093.3 100.0,093.3,100.0,14.000,14.097,,15.2919,,15.2929,,15.2924,33.2823,,33.2835,33.2820,,33.2839,33.2837,5.5958,,5.9182,,5.6641,,5.9263,,,243.914,257.4865,256.1013,246.887,268.5563,256.5490,256.3252,0.0527,,0.1705,0.1459,2.6018,,1.3858,,24.5848,,24.5843,,,,,,,,,,,15.2898,15.2908,0.0397,334.738,97.836,99.030,,,,,,,,,,,,
CalCOFI,2105SH,013,,2105_013d,06-May-2021 19:54:36,06-May-2021 11:54:36,30.51372,-122.25872,093.3 100.0,093.3,100.0,15.000,15.104,,15.2868,,15.2877,,15.2873,33.2829,,33.2841,33.2824,,33.2843,33.2842,5.6171,,5.9405,,5.6685,,5.9308,,,244.842,258.4566,257.0603,247.079,269.5585,256.7458,256.9031,0.0544,,0.1831,0.1531,2.6017,,1.3858,,24.5863,,24.5857,,,,,,,,,,,15.2845,15.2855,0.0431,334.621,98.198,99.097,,,,,,,,,,,,
CalCOFI,2105SH,013,,2105_013d,06-May-2021 19:54:38,06-May-2021 11:54:38,30.51372,-122.25872,093.3 100.0,093.3,100.0,16.000,16.111,,15.2820,,15.2828,,15.2824,33.2834,,33.2846,33.2829,,33.2848,33.2847,5.6152,,5.9385,,5.6646,,5.9268,,,244.758,258.3688,256.9735,246.911,269.4678,256.5736,256.7736,0.0562,,0.1964,0.1607,2.6015,,1.3858,,24.5878,,24.5873,,,,,,,,,,,15.2796,15.2803,0.0465,334.513,98.156,99.020,,,,,,,,,,,,
CalCOFI,2105SH,013,,2105_013d,06-May-2021 19:54:40,06-May-2021 11:54:40,30.51372,-122.25872,093.3 100.0,093.3,100.0,17.000,17.118,,15.2786,,15.2795,,15.2791,33.2837,,33.2849,33.2834,,33.2853,33.2851,5.5931,,5.9154,,5.6613,,5.9234,,,243.793,257.3600,255.9763,246.765,268.4256,256.4239,256.2001,0.0578,,0.2082,0.1674,2.6011,,1.3858,,24.5888,,24.5884,,,,,,,,,,,15.2761,15.2769,0.0498,334.448,97.763,98.956,,,,,,,,,,,,
CalCOFI,2105SH,013,,2105_013d,06-May-2021 19:54:42,06-May-2021 11:54:42,30.51372,-122.25872,093.3 100.0,093.3,100.0,18.000,18.125,,15.2766,,15.2775,,15.2771,33.2839,,33.2851,33.2835,,33.2854,33.2853,5.5914,,5.9136,,5.6610,,5.9231,,,243.719,257.2826,255.8998,246.754,268.3457,256.4127,256.1563,0.0573,,0.2045,0.1653,2.6010,,1.3858,,24.5894,,24.5890,,,,,,,,,,,15.2739,15.2748,0.0532,334.417,97.729,98.948,,,,,,,,,,,,
CalCOFI,2105SH,013,,2105_013d,06-May-2021 19:54:44,06-May-2021 11:54:44,30.51372,-122.25870,093.3 100.0,093.3,100.0,19.000,19.132,,15.2722,,15.2730,,15.2726,33.2841,,33.2853,33.2837,,33.2856,33.2855,5.5891,,5.9112,,5.6737,,5.9362,,,243.617,257.1760,255.7944,247.305,268.2355,256.9774,256.3859,0.0582,,0.2111,0.1691,2.6011,,1.3858,,24.5906,,24.5901,,,,,,,,,,,15.2693,15.2701,0.0566,334.334,97.680,99.160,,,,,,,,,,,,
CalCOFI,2105SH,013,,2105_013d,06-May-2021 19:54:45,06-May-2021 11:54:45,30.51372,-122.25870,093.3 100.0,093.3,100.0,20.000,20.139,,15.2533,,15.2537,,15.2535,33.2847,,33.2859,33.2825,,33.2844,33.2852,5.6259,,5.9497,,5.6844,,5.9473,,,245.220,258.8518,257.4509,247.773,269.9668,257.4571,257.4540,0.0593,,0.2192,0.1737,2.6012,,1.3858,,24.5953,,24.5935,,,,,,,,,,,15.2502,15.2506,0.0600,333.920,98.287,99.309,,,,,,,,,,,,
CalCOFI,2105SH,013,,2105_013d,06-May-2021 19:54:47,06-May-2021 11:54:47,30.51372,-122.25870,093.3 100.0,093.3,100.0,21.000,21.146,,15.2113,,15.2119,,15.2116,33.2830,,33.2842,33.2810,,33.2829,33.2836,5.6304,,5.9544,,5.6888,,5.9519,,,245.417,259.0577,257.6544,247.963,270.1795,257.6518,257.6531,0.0598,,0.2229,0.1758,2.6013,,1.3858,,24.6032,,24.6015,,,,,,,,,,,15.2082,15.2087,0.0633,333.198,98.283,99.303,,,,,,,,,,,,
CalCOFI,2105SH,013,,2105_013d,06-May-2021 19:54:49,06-May-2021 11:54:49,30.51371,-122.25870,093.3 100.0,093.3,100.0,22.000,22.153,,15.1956,,15.1965,,15.1961,33.2812,,33.2824,33.2804,,33.2823,33.2824,5.6371,,5.9614,,5.6869,,5.9499,,,245.706,259.3599,257.9531,247.877,270.4917,257.5637,257.7584,0.0612,,0.2332,0.1817,2.6016,,1.3858,,24.6053,,24.6045,,,,,,,,,,,15.1923,15.1932,0.0667,333.030,98.368,99.238,,,,,,,,,,,,
CalCOFI,2105SH,013,,2105_013d,06-May-2021 19:54:51,06-May-2021 11:54:51,30.51370,-122.25870,093.3 100.0,093.3,100.0,23.000,23.160,,15.1947,,15.1955,,15.1951,33.2812,,33.2824,33.2805,,33.2824,33.2824,5.6267,,5.9505,,5.6850,,5.9479,,,245.252,258.8852,257.4839,247.794,270.0013,257.4786,257.4813,0.0647,,0.2590,0.1965,2.6019,,1.3858,,24.6055,,24.6048,,,,,,,,,,,15.1912,15.1920,0.0700,333.037,98.184,99.203,,,,,,,,,,,,
CalCOFI,2105SH,013,,2105_013d,06-May-2021 19:54:52,06-May-2021 11:54:52,30.51370,-122.25870,093.3 100.0,093.3,100.0,24.000,24.167,,15.1921,,15.1926,,15.1924,33.2811,,33.2823,33.2806,,33.2825,33.2824,5.6268,,5.9506,,5.6820,,5.9448,,,245.258,258.8915,257.4901,247.663,270.0078,257.3443,257.4172,0.0652,,0.2626,0.1986,2.6023,,1.3858,,24.6060,,24.6055,,,,,,,,,,,15.1885,15.1890,0.0734,333.018,98.181,99.145,,,,,,,,,,,,
CalCOFI,2105SH,013,,2105_013d,06-May-2021 19:54:55,06-May-2021 11:54:55,30.51370,-122.25870,093.3 100.0,093.3,100.0,25.000,25.174,,15.1820,,15.1826,,15.1823,33.2815,,33.2827,33.2802,,33.2821,33.2824,5.6241,,5.9478,,5.6922,,5.9554,,,245.138,258.7661,257.3661,248.110,269.8782,257.8025,257.5843,0.0667,,0.2736,0.2049,2.6028,,1.3858,,24.6085,,24.6074,,,,,,,,,,,15.1783,15.1788,0.0767,332.812,98.114,99.304,,,,,,,,,,,,
CalCOFI,2105SH,013,,2105_013d,06-May-2021 19:54:57,06-May-2021 11:54:57,30.51370,-122.25869,093.3 100.0,093.3,100.0,26.000,26.181,,15.1452,,15.1459,,15.1456,33.2890,,33.2902,33.2873,,33.2892,33.2897,5.6112,,5.9343,,5.6983,,5.9617,,,244.575,258.1775,256.7844,248.369,269.2702,258.0679,257.4262,0.0689,,0.2898,0.2141,2.6030,,1.3858,,24.6223,,24.6209,,,,,,,,,,,15.1413,15.1420,0.0801,331.523,97.823,99.341,,,,,,,,,,,,
CalCOFI,2105SH,013,,2105_013d,06-May-2021 19:54:58,06-May-2021 11:54:58,30.51370,-122.25868,093.3 100.0,093.3,100.0,27.000,27.188,,15.0681,,15.0698,,15.0690,33.3065,,33.3077,33.3020,,33.3039,33.3058,5.6257,,5.9495,,5.7018,,5.9653,,,245.201,258.8319,257.4312,248.518,269.9463,258.2206,257.8259,0.0706,,0.3022,0.2213,2.6032,,1.3858,,24.6527,,24.6488,,,,,,,,,,,15.0640,15.0657,0.0834,328.663,97.936,99.261,,,,,,,,,,,,
CalCOFI,2105SH,013,,2105_013d,06-May-2021 19:55:00,06-May-2021 11:55:00,30.51370,-122.25868,093.3 100.0,093.3,100.0,28.000,28.195,,15.0130,,15.0136,,15.0133,33.3171,,33.3183,33.3153,,33.3172,33.3178,5.6265,,5.9503,,5.7101,,5.9739,,,245.229,258.8612,257.4602,248.873,269.9765,258.5845,258.0224,0.0720,,0.3124,0.2272,2.6032,,1.3858,,24.6728,,24.6713,,,,,,,,,,,15.0088,15.0094,0.0867,326.772,97.848,99.302,,,,,,,,,,,,
CalCOFI,2105SH,013,,2105_013d,06-May-2021 19:55:02,06-May-2021 11:55:02,30.51370,-122.25868,093.3 100.0,093.3,100.0,29.000,29.202,,15.0095,,15.0103,,15.0099,33.3188,,33.3200,33.3174,,33.3193,33.3197,5.6351,,5.9593,,5.7128,,5.9767,,,245.602,259.2511,257.8456,248.990,270.3793,258.7044,258.2750,0.0748,,0.3329,0.2390,2.6032,,1.3858,,24.6749,,24.6737,,,,,,,,,,,15.0052,15.0059,0.0900,326.598,97.991,99.344,,,,,,,,,,,,
CalCOFI,2105SH,013,,2105_013d,06-May-2021 19:55:04,06-May-2021 11:55:04,30.51370,-122.25868,093.3 100.0,093.3,100.0,30.000,30.209,,15.0091,,15.0099,,15.0095,33.3192,,33.3204,33.3182,,33.3201,33.3203,5.6617,,5.9871,,5.7149,,5.9789,,,246.762,260.4638,259.0443,249.084,271.6321,258.8008,258.9226,0.0755,,0.3380,0.2419,2.6033,,1.3858,,24.6753,,24.6744,,,,,,,,,,,15.0046,15.0054,0.0933,326.592,98.454,99.381,30,14.991,,,259.37,0.372,0.089,0.0,0.00,0.00,0.31,0.74
CalCOFI,2105SH,013,,2105_013d,06-May-2021 19:55:06,06-May-2021 11:55:06,30.51370,-122.25868,093.3 100.0,093.3,100.0,31.000,31.216,,15.0087,,15.0095,,15.0091,33.3198,,33.3210,33.3191,,33.3210,33.3210,5.6414,,5.9659,,5.7090,,5.9728,,,245.879,259.5407,258.1319,248.822,270.6785,258.5322,258.3321,0.0765,,0.3453,0.2461,2.6032,,1.3858,,24.6759,,24.6752,,,,,,,,,,,15.0041,15.0049,0.0966,326.563,98.101,99.276,,,,,,,,,,,,
CalCOFI,2105SH,013,,2105_013d,06-May-2021 19:55:08,06-May-2021 11:55:08,30.51370,-122.25868,093.3 100.0,093.3,100.0,32.000,32.223,,15.0059,,15.0063,,15.0061,33.3201,,33.3213,33.3194,,33.3213,33.3213,5.6219,,5.9455,,5.7094,,5.9732,,,245.026,258.6490,257.2504,248.840,269.7573,258.5507,257.9006,0.0777,,0.3540,0.2512,2.6029,,1.3858,,24.6768,,24.6761,,,,,,,,,,,15.0011,15.0016,0.0998,326.511,97.756,99.278,,,,,,,,,,,,
CalCOFI,2105SH,013,,2105_013d,06-May-2021 19:55:10,06-May-2021 11:55:10,30.51370,-122.25868,093.3 100.0,093.3,100.0,33.000,33.230,,15.0005,,15.0011,,15.0008,33.3234,,33.3246,33.3230,,33.3249,33.3248,5.6348,,5.9590,,5.7035,,5.9671,,,245.588,259.2365,257.8311,248.581,270.3642,258.2852,258.0582,0.0800,,0.3708,0.2609,2.6025,,1.3858,,24.6806,,24.6801,,,,,,,,,,,14.9955,14.9962,0.1031,326.182,97.971,99.167,,,,,,,,,,,,
CalCOFI,2105SH,013,,2105_013d,06-May-2021 19:55:12,06-May-2021 11:55:12,30.51370,-122.25868,093.3 100.0,093.3,100.0,34.000,34.237,,15.0022,,15.0029,,15.0026,33.3263,,33.3275,33.3258,,33.3277,33.3276,5.6332,,5.9573,,5.7077,,5.9714,,,245.521,259.1665,257.7619,248.766,270.2919,258.4748,258.1184,0.0816,,0.3824,0.2676,2.6020,,1.3858,,24.6824,,24.6819,,,,,,,,,,,14.9971,14.9978,0.1064,326.036,97.950,99.246,,,,,,,,,,,,
CalCOFI,2105SH,013,,2105_013d,06-May-2021 19:55:13,06-May-2021 11:55:13,30.51370,-122.25868,093.3 100.0,093.3,100.0,35.000,35.244,,15.0015,,15.0022,,15.0019,33.3279,,33.3291,33.3274,,33.3293,33.3292,5.6287,,5.9526,,5.7041,,5.9677,,,245.323,258.9595,257.5573,248.607,270.0780,258.3119,257.9346,0.0821,,0.3860,0.2697,2.6015,,1.3858,,24.6839,,24.6833,,,,,,,,,,,14.9962,14.9969,0.1097,325.929,97.870,99.182,,,,,,,,,,,,
CalCOFI,2105SH,013,,2105_013d,06-May-2021 19:55:15,06-May-2021 11:55:15,30.51370,-122.25868,093.3 100.0,093.3,100.0,36.000,36.251,,14.9986,,14.9993,,14.9990,33.3292,,33.3304,33.3287,,33.3306,33.3305,5.6268,,5.9506,,5.7062,,5.9699,,,245.239,258.8717,257.4705,248.698,269.9873,258.4051,257.9378,0.0848,,0.4056,0.2811,2.6009,,1.3858,,24.6855,,24.6850,,,,,,,,,,,14.9932,14.9939,0.1130,325.800,97.832,99.214,,,,,,,,,,,,
CalCOFI,2105SH,013,,2105_013d,06-May-2021 19:55:18,06-May-2021 11:55:18,30.51370,-122.25868,093.3 100.0,093.3,100.0,37.000,37.258,,14.9921,,14.9930,,14.9926,33.3295,,33.3307,33.3287,,33.3306,33.3307,5.6664,,5.9920,,5.7048,,5.9684,,,246.964,260.6750,259.2531,248.637,271.8503,258.3426,258.7979,0.0861,,0.4150,0.2866,2.6001,,1.3858,,24.6872,,24.6864,,,,,,,,,,,14.9865,14.9875,0.1163,325.673,98.508,99.177,,,,,,,,,,,,
CalCOFI,2105SH,013,,2105_013d,06-May-2021 19:55:20,06-May-2021 11:55:20,30.51370,-122.25866,093.3 100.0,093.3,100.0,38.000,38.266,,14.9702,,14.9709,,14.9706,33.3288,,33.3300,33.3277,,33.3296,33.3298,5.6437,,5.9683,,5.7059,,5.9696,,,245.972,259.6379,258.2280,248.685,270.7789,258.3918,258.3099,0.0895,,0.4396,0.3009,2.5996,,1.3858,,24.6915,,24.6904,,,,,,,,,,,14.9645,14.9653,0.1195,325.295,98.070,99.152,,,,,,,,,,,,
CalCOFI,2105SH,013,,2105_013d,06-May-2021 19:55:22,06-May-2021 11:55:22,30.51370,-122.25866,093.3 100.0,093.3,100.0,39.000,39.273,,14.9502,,14.9510,,14.9506,33.3311,,33.3323,33.3296,,33.3315,33.3319,5.6425,,5.9670,,5.7198,,5.9840,,,245.919,259.5825,258.1732,249.288,270.7217,259.0098,258.5915,0.0996,,0.5123,0.3434,2.5994,,1.3858,,24.6975,,24.6962,,,,,,,,,,,14.9444,14.9451,0.1228,324.745,98.011,99.355,,,,,,,,,,,,
CalCOFI,2105SH,013,,2105_013d,06-May-2021 19:55:23,06-May-2021 11:55:23,30.51370,-122.25866,093.3 100.0,093.3,100.0,40.000,40.280,,14.9261,,14.9269,,14.9265,33.3333,,33.3345,33.3317,,33.3336,33.3341,5.6777,,6.0038,,5.7201,,5.9843,,,247.452,261.1851,259.7574,249.300,272.3773,259.0221,259.3898,0.1118,,0.5995,0.3948,2.5994,,1.3858,,24.7045,,24.7031,,,,,,,,,,,14.9201,14.9209,0.1261,324.114,98.577,99.314,,,,,,,,,,,,
CalCOFI,2105SH,013,,2105_013d,06-May-2021 19:55:25,06-May-2021 11:55:25,30.51370,-122.25868,093.3 100.0,093.3,100.0,41.000,41.287,,14.9145,,14.9152,,14.9149,33.3334,,33.3346,33.3324,,33.3343,33.3345,5.6253,,5.9490,,5.7243,,5.9886,,,245.168,258.7974,257.3972,249.485,269.9106,259.2117,258.3045,0.1143,,0.6173,0.4053,2.5994,,1.3858,,24.7071,,24.7062,,,,,,,,,,,14.9084,14.9091,0.1293,323.891,97.645,99.365,,,,,,,,,,,,
CalCOFI,2105SH,013,,2105_013d,06-May-2021 19:55:27,06-May-2021 11:55:27,30.51370,-122.25867,093.3 100.0,093.3,100.0,42.000,42.294,,14.9059,,14.9068,,14.9064,33.3330,,33.3342,33.3323,,33.3342,33.3342,5.6413,,5.9658,,5.7247,,5.9890,,,245.865,259.5261,258.1174,249.502,270.6634,259.2292,258.6733,0.1180,,0.6436,0.4209,2.5995,,1.3858,,24.7087,,24.7079,,,,,,,,,,,14.8997,14.9006,0.1326,323.768,97.905,99.355,,,,,,,,,,,,
CalCOFI,2105SH,013,,2105_013d,06-May-2021 19:55:29,06-May-2021 11:55:29,30.51370,-122.25868,093.3 100.0,093.3,100.0,43.000,43.301,,14.8997,,14.9002,,14.9000,33.3327,,33.3339,33.3320,,33.3339,33.3339,5.6644,,5.9899,,5.7180,,5.9821,,,246.871,260.5777,259.1570,249.208,271.7499,258.9278,259.0424,0.1182,,0.6450,0.4217,2.5995,,1.3858,,24.7098,,24.7092,,,,,,,,,,,14.8933,14.8938,0.1359,323.692,98.294,99.225,,,,,,,,,,,,
CalCOFI,2105SH,013,,2105_013d,06-May-2021 19:55:31,06-May-2021 11:55:31,30.51369,-122.25868,093.3 100.0,093.3,100.0,44.000,44.308,,14.8917,,14.8929,,14.8923,33.3339,,33.3351,33.3334,,33.3353,33.3352,5.6586,,5.9839,,5.7202,,5.9844,,,246.618,260.3133,258.8955,249.302,271.4766,259.0242,258.9599,0.1286,,0.7184,0.4655,2.5995,,1.3858,,24.7125,,24.7119,,,,,,,,,,,14.8852,14.8864,0.1391,323.465,98.179,99.249,,,,,,,,,,,,
CalCOFI,2105SH,013,,2105_013d,06-May-2021 19:55:33,06-May-2021 11:55:33,30.51368,-122.25867,093.3 100.0,093.3,100.0,45.000,45.315,,14.8831,,14.8836,,14.8834,33.3365,,33.3377,33.3355,,33.3374,33.3376,5.6359,,5.9601,,5.7232,,5.9875,,,245.627,259.2773,257.8715,249.434,270.4063,259.1595,258.5155,0.1381,,0.7851,0.5055,2.5995,,1.3858,,24.7164,,24.7156,,,,,,,,,,,14.8764,14.8769,0.1424,323.126,97.769,99.285,,,,,,,,,,,,
CalCOFI,2105SH,013,,2105_013d,06-May-2021 19:55:35,06-May-2021 11:55:35,30.51368,-122.25866,093.3 100.0,093.3,100.0,46.000,46.322,,14.8755,,14.8764,,14.8760,33.3351,,33.3363,33.3345,,33.3364,33.3364,5.6765,,6.0026,,5.7264,,5.9908,,,247.397,261.1276,259.7005,249.572,272.3179,259.3009,259.5007,0.1379,,0.7837,0.5047,2.5996,,1.3858,,24.7170,,24.7163,,,,,,,,,,,14.8687,14.8695,0.1456,323.101,98.458,99.325,,,,,,,,,,,,
CalCOFI,2105SH,013,,2105_013d,06-May-2021 19:55:36,06-May-2021 11:55:36,30.51368,-122.25866,093.3 100.0,093.3,100.0,47.000,47.329,,14.8654,,14.8665,,14.8660,33.3335,,33.3347,33.3325,,33.3344,33.3346,5.6832,,6.0096,,5.7379,,6.0027,,,247.689,261.4329,260.0023,250.072,272.6333,259.8134,259.9079,0.1417,,0.8102,0.5207,2.5997,,1.3858,,24.7180,,24.7169,,,,,,,,,,,14.8584,14.8596,0.1489,323.035,98.553,99.503,,,,,,,,,,,,
CalCOFI,2105SH,013,,2105_013d,06-May-2021 19:55:38,06-May-2021 11:55:38,30.51368,-122.25868,093.3 100.0,093.3,100.0,48.000,48.337,,14.8427,,14.8435,,14.8431,33.3304,,33.3316,33.3289,,33.3308,33.3312,5.6803,,6.0066,,5.7421,,6.0071,,,247.561,261.2991,259.8700,250.255,272.4951,260.0009,259.9355,0.1361,,0.7711,0.4971,2.5999,,1.3858,,24.7205,,24.7192,,,,,,,,,,,14.8356,14.8364,0.1521,322.822,98.456,99.528,,,,,,,,,,,,
CalCOFI,2105SH,013,,2105_013d,06-May-2021 19:55:41,06-May-2021 11:55:41,30.51368,-122.25868,093.3 100.0,093.3,100.0,49.000,49.344,,14.8251,,14.8264,,14.8258,33.3278,,33.3290,33.3274,,33.3293,33.3292,5.6840,,6.0104,,5.7478,,6.0130,,,247.723,261.4684,260.0374,250.506,272.6700,260.2582,260.1478,0.1369,,0.7767,0.5004,2.6004,,1.3858,,24.7224,,24.7217,,,,,,,,,,,14.8178,14.8192,0.1554,322.674,98.484,99.593,,,,,,,,,,,,
CalCOFI,2105SH,013,,2105_013d,06-May-2021 19:55:43,06-May-2021 11:55:43,30.51368,-122.25868,093.3 100.0,093.3,100.0,50.000,50.351,,14.8263,,14.8268,,14.8266,33.3290,,33.3302,33.3286,,33.3305,33.3304,5.6797,,6.0059,,5.7448,,6.0099,,,247.534,261.2708,259.8421,250.372,272.4659,260.1208,259.9815,0.1359,,0.7697,0.4962,2.6008,,1.3858,,24.7230,,24.7226,,,,,,,,,,,14.8189,14.8194,0.1586,322.639,98.412,99.542,,,,,,,,,,,,
CalCOFI,2105SH,013,,2105_013d,06-May-2021 19:55:44,06-May-2021 11:55:44,30.51368,-122.25868,093.3 100.0,093.3,100.0,51.000,51.358,,14.8300,,14.8305,,14.8303,33.3305,,33.3317,33.3305,,33.3324,33.3321,5.6672,,5.9929,,5.7373,,6.0021,,,246.989,260.7011,259.2789,250.047,271.8773,259.7878,259.5334,0.1369,,0.7767,0.5004,2.6010,,1.3858,,24.7234,,24.7233,,,,,,,,,,,14.8224,14.8230,0.1619,322.635,98.204,99.421,51,14.823,,,258.40,0.538,0.228,1.59,0.143,0.05,0.44,1.66
CalCOFI,2105SH,013,,2105_013d,06-May-2021 19:55:46,06-May-2021 11:55:46,30.51368,-122.25868,093.3 100.0,093.3,100.0,52.000,52.365,,14.8306,,14.8310,,14.8308,33.3318,,33.3330,33.3314,,33.3333,33.3332,5.6583,,5.9836,,5.7384,,6.0032,,,246.605,260.2997,258.8821,250.093,271.4626,259.8349,259.3585,0.1402,,0.7997,0.5143,2.6009,,1.3858,,24.7243,,24.7239,,,,,,,,,,,14.8229,14.8233,0.1651,322.579,98.053,99.440,,,,,,,,,,,,
CalCOFI,2105SH,013,,2105_013d,06-May-2021 19:55:47,06-May-2021 11:55:47,30.51367,-122.25868,093.3 100.0,093.3,100.0,53.000,53.372,,14.8240,,14.8245,,14.8243,33.3317,,33.3329,33.3313,,33.3332,33.3331,5.6716,,5.9975,,5.7375,,6.0023,,,247.182,260.9029,259.4783,250.056,272.0857,259.7970,259.6377,0.1464,,0.8429,0.5404,2.6001,,1.3858,,24.7257,,24.7252,,,,,,,,,,,14.8161,14.8166,0.1684,322.478,98.270,99.413,,,,,,,,,,,,
CalCOFI,2105SH,013,,2105_013d,06-May-2021 19:55:51,06-May-2021 11:55:51,30.51366,-122.25866,093.3 100.0,093.3,100.0,54.000,54.379,,14.8240,,14.8247,,14.8244,33.3333,,33.3345,33.3329,,33.3348,33.3347,5.6256,,5.9494,,5.6838,,5.9467,,,245.177,258.8068,257.4064,247.714,269.9203,257.3966,257.4015,0.1468,,0.8457,0.5421,2.5944,,1.3858,,24.7269,,24.7264,,,,,,,,,,,14.8160,14.8167,0.1716,322.388,97.474,98.484,,,,,,,,,,,,
CalCOFI,2105SH,013,,2105_013d,06-May-2021 19:55:53,06-May-2021 11:55:53,30.51366,-122.25866,093.3 100.0,093.3,100.0,55.000,55.387,,14.8243,,14.8249,,14.8246,33.3358,,33.3370,33.3358,,33.3377,33.3374,5.5420,,5.8619,,5.6014,,5.8613,,,241.535,254.9995,253.6429,244.122,265.9870,253.7150,253.6790,0.1567,,0.9143,0.5838,2.5874,,1.3858,,24.7288,,24.7287,,,,,,,,,,,14.8162,14.8168,0.1749,322.238,96.028,97.058,,,,,,,,,,,,
CalCOFI,2105SH,013,,2105_013d,06-May-2021 19:55:54,06-May-2021 11:55:54,30.51366,-122.25866,093.3 100.0,093.3,100.0,56.000,56.394,,14.6790,,14.6766,,14.6778,33.3327,,33.3339,33.3153,,33.3172,33.3256,5.5460,,5.8661,,5.6252,,5.8860,,,241.701,255.1730,253.8145,245.156,266.1663,254.7748,254.2947,0.1653,,0.9735,0.6200,2.5830,,1.3858,,24.7576,,24.7447,,,,,,,,,,,14.6707,14.6684,0.1781,319.517,95.815,97.168,,,,,,,,,,,,
CalCOFI,2105SH,013,,2105_013d,06-May-2021 19:55:55,06-May-2021 11:55:55,30.51366,-122.25866,093.3 100.0,093.3,100.0,57.000,57.401,,14.3883,,14.3856,,14.3870,33.3180,,33.3192,33.2958,,33.2977,33.3085,5.5933,,5.9156,,5.6587,,5.9207,,,243.749,257.3140,255.9308,246.605,268.3781,256.2599,256.0954,0.1827,,1.0921,0.6933,2.5784,,1.3858,,24.8080,,24.7914,,,,,,,,,,,14.3800,14.3773,0.1813,314.720,96.060,97.165,,,,,,,,,,,,